Starlink 32668

operational
NORAD ID: 62212 Int'l Des: 2024-229 Owner: SPXS Country: US Constellation: starlink
LEOCIRCULAR

关于 Starlink 32668

正在加载描述...

实时位置

正在加载3D地球...

即将过境

高度历史

Altitude vs Time

uPlot chart will show altitude changes over time

两行轨道根数

1 62212U 24229W 25303.01373556 -.00011647 00000-0 -41490-3 0 9997
2 62212 43.0009 285.4689 0001478 223.1663 136.9073 15.27538337 50611
Epoch: Oct 30, 2025 • Age: 24 hours

当前状态

高度 484.6 km
速度 7.63 km/s
星下点 28.73°N, 84.86°W
发射日期 Dec 4, 2024
运行时间 0.9 years
类型 internet

技术详情

分类 Payload
质量 730.00 kg
干质量 700.00 kg
总质量 730.00 kg
长度 0.30 m
直径 4.10 m
跨度 29.00 m
形状 Box + pan
制造商 SPXS
平台类型 Starlink V2M
阶段状态 In Orbit
所有者/国家 SPXS/US

大型星座

Loading constellations...